Location: Forst
(46.9333°N, 15.4333°E)
Time: 05:06:41
(UTC+00:00)

Cosmos 1371 Rocket - Pass Details

Date: 01 December 2020
Orbit: 753 x 790 km, 74.0° (Epoch: 18 January)

Event Time Altitude Azimuth Distance (km) Brightness Sun altitude
Rises 17:57:19 0° 337° (NNW) 3,220 7.5 -27.6°
Reaches altitude 10° 17:59:41 10° 337° (NNW) 2,293 6.7 -28.0°
Enters shadow 18:03:36 52° 332° (NNW) 938 4.5 -28.6°
